Location: Oulou
(10.7667°N, 12.5167°W)
Time: 14:46:05
(UTC+00:00)

Aureole 1 Rocket - Pass Details

Date: 20 September 2019
Orbit: 379 x 1382 km, 73.9° (Epoch: 21 October)

Event Time Altitude Azimuth Distance (km) Brightness Sun altitude
Rises 20:18:25 0° 346° (NNW) 2,666 6.6 -23.1°
Reaches altitude 10° 20:20:45 10° 346° (NNW) 1,654 5.5 -23.7°
Enters shadow 20:22:12 22° 346° (NNW) 1,042 4.4 -24.0°
